Flag for Brazil Weather past 2 weeks in Porto Velho, Rondônia, Brazil

Now
81 °F

Broken clouds.


Feels Like: 85 °F
Forecast: 71 / 84 °F
Wind: 5 mph from North

Location: Porto Velho Aeroporto

Current Time: Oct 24, 2014 at 11:05:51 AM

Latest Report: Oct 24, 2014 at 10:00 AM


Visibility: N/A

Pressure: 29.89 "Hg

Humidity: 74%

Dew point: 72 °F

Location of Porto VelhoLocation

Historic Weather in Porto Velho — Graph

°F

Porto Velho temperature yesterday

Maximum temperature yesterday: 84 °F (at 4:00 PM)
Minimum temperature yesterday: 36 °F (at 5:00 AM)
Average temperature yesterday: 73 °F

Past Weeks' High & Low Weather Summary

 TemperatureHumidityPressure
High95 °F (Oct 18, 3:00 PM)100% (Oct 23, 5:00 AM)29.98 "Hg (Oct 23, 5:00 AM)
Low36 °F (Oct 23, 5:00 AM)25% (Oct 18, 6:00 PM)29.71 "Hg (Oct 9, 4:00 PM)
Average78 °F79%29.86 "Hg
* Reported Oct 9 10:00 AM — Oct 24 10:00 AM, Porto Velho, Weather by CustomWeather, © 2014

Note: Actual official high and low records may vary slightly from our data, if they occured in-between our weather recording intervals... More about our weather records

Advertising

Porto Velho weather history for previous 24 hours

 ConditionsComfort  
Time TempWeatherWind HumidityBarometerVisibility
10:00 AM
Oct 24
81 °FBroken clouds.5 mph74%29.89 "HgN/A
9:00 AM79 °FBroken clouds.2 mph79%29.89 "HgN/A
8:00 AM77 °FScattered clouds.No wind83%29.89 "HgN/A
7:00 AM75 °FScattered clouds.No wind89%29.86 "HgN/A
6:00 AM73 °FSunny.1 mph94%29.86 "Hg10 mi
5:00 AM73 °FPassing clouds.3 mph94%29.83 "HgN/A
4:00 AM73 °FPassing clouds.No wind94%29.80 "HgN/A
3:00 AM73 °FPassing clouds.2 mph94%29.80 "HgN/A
2:00 AM73 °FPassing clouds.3 mph94%29.80 "HgN/A
1:00 AM75 °FThunderstorms. Passing clouds.5 mph89%29.83 "HgN/A
12:00 AM73 °FThunderstorms. Passing clouds.3 mph94%29.86 "HgN/A
11:00 PM
Oct 23
75 °FThunderstorms. Passing clouds.3 mph89%29.86 "HgN/A
10:00 PM75 °FPassing clouds.2 mph94%29.86 "HgN/A
9:00 PM75 °FPassing clouds.2 mph94%29.83 "HgN/A
8:00 PM75 °FPassing clouds.2 mph94%29.77 "HgN/A
7:00 PM75 °FPassing clouds.No wind89%29.77 "HgN/A
6:00 PM77 °FScattered clouds.No wind83%29.74 "HgN/A
5:00 PM81 °FPassing clouds.No wind79%29.74 "HgN/A
4:00 PM84 °FScattered clouds.3 mph58%29.71 "HgN/A
3:00 PM82 °FScattered clouds.2 mph66%29.74 "HgN/A
2:00 PM81 °FBroken clouds.3 mph70%29.80 "HgN/A
1:00 PM79 °FBroken clouds.2 mph74%29.86 "HgN/A
12:00 PM77 °FBroken clouds.5 mph83%29.92 "HgN/A
11:00 AM75 °FBroken clouds.3 mph83%29.92 "HgN/A
Weather by CustomWeather, © 2014

See weather overviewHow to use our weather pages